Flight Track Log - Related Links

Times and Time Zones

All times are in EDT time to prevent confusion due to time zone crossing. See the N966QS flight status page for this flight to view local times or setup timezone preferences in your user account.

Time Position Orientation Groundspeed Altitude Reporting Facility
EDT Latitude Longitude Course Direction KTS MPH feet Rate Location/Type
Tue 01:41:32 PM 41.3969 -81.8839 259° West 183 211 2,700  Level Indianapolis Center
Tue 01:42:07 PM 41.3892 -81.9392 259° West 236 272 5,300 4,273 Climbing Cleveland Center
Tue 01:42:38 PM 41.3825 -81.9750 256° West 264 304 7,400 4,154 Climbing Cleveland Center
Tue 01:43:38 PM 41.3436 -82.0822 244° Southwest 277 319 11,600 3,350 Climbing Cleveland Center
Tue 01:44:38 PM 41.3044 -82.1892 244° Southwest 333 383 14,100 2,350 Climbing Cleveland Center
Tue 01:45:38 PM 41.2611 -82.3094 244° Southwest 363 418 16,300 2,100 Climbing Cleveland Center
Tue 01:46:38 PM 41.2153 -82.4353 244° Southwest 377 434 18,300 1,850 Climbing Cleveland Center
Tue 01:47:38 PM 41.1694 -82.5636 245° Southwest 383 441 20,000 850 Climbing Cleveland Center
Tue 01:48:38 PM 41.1125 -82.7081 242° Southwest 420 483 20,000  Level Cleveland Center
Tue 01:49:39 PM 41.0392 -82.8433 234° Southwest 445 512 20,000  Level Cleveland Center
Tue 01:51:48 PM 40.8700 -83.1194 231° Southwest 437 503 20,000  Level Indianapolis Center
Tue 01:52:50 PM 40.7922 -83.2439 230° Southwest 435 501 20,000  Level Indianapolis Center
Tue 01:53:52 PM 40.7075 -83.3781 230° Southwest 431 496 20,000  Level Indianapolis Center
Tue 01:54:53 PM 40.6289 -83.5047 231° Southwest 442 509 20,000  Level Indianapolis Center
Tue 01:55:55 PM 40.5497 -83.6297 230° Southwest 443 510 20,000  Level Indianapolis Center
Tue 01:56:57 PM 40.4725 -83.7536 231° Southwest 439 505 20,000  Level Indianapolis Center
Tue 01:57:58 PM 40.3950 -83.8761 230° Southwest 435 501 20,000  Level Indianapolis Center
Tue 01:59:00 PM 40.3161 -84.0000 230° Southwest 439 505 20,000  Level Indianapolis Center
Tue 02:00:02 PM 40.2158 -84.0811 212° Southwest 428 493 20,000  Level Indianapolis Center
Tue 02:01:04 PM 40.1122 -84.1367 202° Southwest 406 467 20,000 -732 Level Indianapolis Center
Tue 02:02:05 PM 39.9889 -84.2017 202° Southwest 407 468 18,500 -1,561 Descending Indianapolis Center
Tue 02:03:07 PM 39.8819 -84.2567 202° Southwest 408 470 16,800 -1,742 Descending Indianapolis Center
Tue 02:04:09 PM 39.7781 -84.3106 202° Southwest 403 464 14,900 -1,415 Descending Indianapolis Center
Tue 02:05:10 PM 39.6767 -84.3639 202° Southwest 396 456 13,900 -488 Descending Indianapolis Center
Tue 02:06:12 PM 39.5731 -84.4169 202° Southwest 395 455 13,900  Level Indianapolis Center
Tue 02:07:14 PM 39.4703 -84.4703 202° Southwest 395 455 13,900  Level Indianapolis Center
Tue 02:08:16 PM 39.3675 -84.5239 202° Southwest 395 455 13,900 -829 Level Indianapolis Center
Tue 02:09:17 PM 39.2503 -84.5831 201° Southwest 388 447 12,200 -976 Descending Indianapolis Center
Tue 02:10:19 PM 39.1547 -84.6333 202° Southwest 373 429 11,900 -146 Descending Indianapolis Center
Tue 02:10:39 PM 39.1167 -84.6500 199° South 381 438 12,000 75 Climbing Cincinnati TRACON
Tue 02:11:39 PM 39.0167 -84.7000 201° Southwest 379 436 12,000 -50 Level Cincinnati TRACON
Tue 02:12:39 PM 38.9333 -84.7833 218° Southwest 373 429 11,900  Descending Cincinnati TRACON
Tue 02:13:39 PM 38.8500 -84.8500 212° Southwest 374 430 12,000 50 Climbing Cincinnati TRACON
Tue 02:14:39 PM 38.7667 -84.9333 218° Southwest 378 435 12,000  Level Cincinnati TRACON
Tue 02:15:28 PM 38.7147 -84.9942 222° Southwest 378 435 12,000  Level Indianapolis Center
Tue 02:16:30 PM 38.6158 -85.0914 218° Southwest 376 433 12,000 -48 Level Indianapolis Center
Tue 02:17:32 PM 38.5308 -85.1717 216° Southwest 377 434 11,900 -495 Descending Indianapolis Center
Tue 02:18:19 PM 38.4783 -85.2300 221° Southwest 306 352 11,100 -1,091 Descending FAA TRACON SMA TRACON (SMA)
Tue 02:18:38 PM 38.4667 -85.2572 241° Southwest 287 330 10,700 -1,538 Descending FAA TRACON SMA TRACON (SMA)
Tue 02:18:58 PM 38.4608 -85.2861 256° West 279 321 10,100 -1,756 Descending FAA TRACON SMA TRACON (SMA)
Tue 02:19:19 PM 38.4558 -85.3150 258° West 273 314 9,500 -1,902 Descending FAA TRACON SMA TRACON (SMA)
Tue 02:19:39 PM 38.4508 -85.3508 260° West 267 307 8,800 -1,950 Descending FAA TRACON SMA TRACON (SMA)
Tue 02:19:59 PM 38.4467 -85.3786 259° West 264 304 8,200 -1,846 Descending FAA TRACON SMA TRACON (SMA)
Tue 02:20:18 PM 38.4422 -85.4061 258° West 260 299 7,600 -1,950 Descending FAA TRACON SMA TRACON (SMA)
Tue 02:20:39 PM 38.4369 -85.4411 259° West 260 299 6,900 -1,950 Descending FAA TRACON SMA TRACON (SMA)
Tue 02:20:58 PM 38.4322 -85.4689 258° West 260 299 6,300 -1,385 Descending FAA TRACON SMA TRACON (SMA)
Tue 02:21:18 PM 38.4281 -85.4956 259° West 255 293 6,000 -439 Descending FAA TRACON SMA TRACON (SMA)
Tue 02:21:39 PM 38.4228 -85.5286 258° West 249 287 6,000  Level FAA TRACON SMA TRACON (SMA)
Tue 02:22:04 PM 38.4175 -85.5617 258° West 246 283 6,000  Level FAA TRACON SMA TRACON (SMA)
Tue 02:22:25 PM 38.4122 -85.5958 259° West 254 292 6,000 -222 Level FAA TRACON SMA TRACON (SMA)
Tue 02:22:58 PM 38.4047 -85.6433 259° West 254 292 5,800 -1,000 Descending FAA TRACON SMA TRACON (SMA)
Tue 02:23:19 PM 38.3992 -85.6769 258° West 250 288 5,100 -1,800 Descending FAA TRACON SMA TRACON (SMA)
Tue 02:23:38 PM 38.3953 -85.7028 259° West 246 283 4,600 -1,800 Descending FAA TRACON SMA TRACON (SMA)
Tue 02:24:19 PM 38.3858 -85.7617 258° West 244 281 3,300 -1,500 Descending FAA TRACON SMA TRACON (SMA)
Tue 02:24:42 PM 38.3767 -85.7847 243° Southwest 245 282 3,000 -419 Descending FAA TRACON SMA TRACON (SMA)
Tue 02:25:02 PM 38.3550 -85.7919 195° South 230 265 3,000  Level FAA TRACON SMA TRACON (SMA)
Tue 02:25:19 PM 38.3356 -85.7894 174° South 224 258 3,000  Level FAA TRACON SMA TRACON (SMA)
Tue 02:25:38 PM 38.3158 -85.7875 176° South 230 265 3,000 -462 Level FAA TRACON SMA TRACON (SMA)
Tue 02:25:58 PM 38.2958 -85.7836 171° South 234 269 2,700 -878 Descending FAA TRACON SMA TRACON (SMA)
Tue 02:26:19 PM 38.2714 -85.7769 168° South 234 269 2,400 -900 Descending FAA TRACON SMA TRACON (SMA)
Tue 02:26:38 PM 38.2528 -85.7700 164° South 228 262 2,100 -1,050 Descending FAA TRACON SMA TRACON (SMA)
Tue 02:26:59 PM 38.2347 -85.7644 166° South 220 253 1,700 -750 Descending FAA TRACON SMA TRACON (SMA)
Tue 02:27:18 PM 38.2161 -85.7583 166° South 186 214 1,600 -977 Descending FAA TRACON SMA TRACON (SMA)
Tue 02:27:42 PM 38.2017 -85.7536 166° South 142 163 1,000 -1,227 Descending FAA TRACON SMA TRACON (SMA)
Tue 02:28:02 PM 38.1914 -85.7503 166° South 122 140 700 -667 Descending FAA TRACON SMA TRACON (SMA)
Tue 02:28:18 PM 38.1892 -85.7492 159° South 121 139 600 -375 Descending FAA TRACON SMA TRACON (SMA)
Tue 02:30:00 PM 38.1741 -85.7365 297° West  Level Estimated

Login

Don't have an account? Register now (free) for customized features, flight alerts, and more!